Hourly Data Report for April 07, 2017

MIRAMICHI RCS
NEW BRUNSWICK

47°00'34.000" N
65°27'54.000" W
33.00 m
8100989
71744
ACQ

Download Data

Hourly Data (April 2017)
Hourly Data Report for April 7, 2017
TIME
LST
Temp Definition
°C
Dew Point Definition
°C
Rel Hum Definition
%
Precip. Amount Definition
mm

Wind Dir Definition
10's deg

Wind Spd Definition
km/h
Visibility Definition
km
Stn Press Definition
kPa
Hmdx Definition


Wind Chill Definition


Weather Definition


00:00 2.1 1.3 95 0.2 9 26   100.40     LegendNANA
01:00 2.4 1.9 96 1.7 9 23   100.25     LegendNANA
02:00 2.2 1.7 97 5.2 8 27   100.01     LegendNANA
03:00 1.4 1.0 97 5.9 6 22   99.73     LegendNANA
04:00 1.5 1.2 98 5.0 5 13   99.63     LegendNANA
05:00 2.7 2.5 98 3.5 7 15   99.41     LegendNANA
06:00 2.9 2.6 98 0.0 8 19   99.24     LegendNANA
07:00 3.6 3.4 99 0.0 6 12   99.15     LegendNANA
08:00 4.6 4.4 99 0.0 10 12   99.11     LegendNANA
09:00 4.5 4.3 98 0.0 11 11   99.07     LegendNANA
10:00 6.1 5.8 98 0.0 11 20   98.99     LegendNANA
11:00 7.9 7.6 98 0.0 12 6   98.99     LegendNANA
12:00 9.4 8.9 97 0.0 12 10   98.91     LegendNANA
13:00 11.3 8.8 85 0.0 31 9   98.90     LegendNANA
14:00 13.6 4.9 56 0.0 22 28   98.85     LegendNANA
15:00 13.4 4.8 56 0.0 21 23   98.85     LegendNANA
16:00 12.3 4.6 59 0.0 21 25   98.81     LegendNANA
17:00 12.1 4.5 59 0.0 19 13   98.69     LegendNANA
18:00 11.5 4.5 62 0.0 19 12   98.70     LegendNANA
19:00 10.5 4.7 67 0.0 17 11   98.72     LegendNANA
20:00 9.3 5.5 77 0.0 18 14   98.72     LegendNANA
21:00 8.5 5.4 81 0.0 18 14   98.80     LegendNANA
22:00 7.8 4.9 82 0.0 18 17   98.78     LegendNANA
23:00 6.4 3.5 82 0.0 18 20   98.80     LegendNANA

Notes on Data Quality.

Legend

  • E = Estimated
  • M = Missing
  • NA = Not Available*
  • [empty] = Indicates an unobserved value
Date modified: